Hourly Weather Bolshoy Nimnyr

Today, 27 July, Tuesday

Time Temperature Precipitation Wind Pressure Humidity
00:00 +12°C° 0 mm 0 mps 679 mmHg 82%
01:00 +11°C° 0 mm 0 mps 679 mmHg 83%
02:00 +11°C° 0 mm 0 mps 679 mmHg 83%
03:00 +12°C° 0 mm 0 mps 679 mmHg 81%
04:00 +15°C° 0 mm 1 mps 679 mmHg 79%
05:00 +16°C° 0 mm 1 mps 680 mmHg 78%
06:00 +18°C° 0 mm 1 mps 680 mmHg 73%
07:00 +20°C° 0 mm 1 mps 680 mmHg 69%
08:00 +20°C° 0 mm 2 mps 680 mmHg 64%
09:00 +20°C° 0 mm 2 mps 680 mmHg 64%
10:00 +21°C° 0 mm 2 mps 680 mmHg 64%
11:00 +21°C° 0 mm 2 mps 680 mmHg 63%
12:00 +23°C° 0.1 mm 2 mps 680 mmHg 60%
13:00 +24°C° 0.1 mm 3 mps 680 mmHg 56%
14:00 +25°C° 0.1 mm 3 mps 679 mmHg 52%
15:00 +25°C° 0.1 mm 3 mps 679 mmHg 54%
16:00 +24°C° 0.1 mm 3 mps 679 mmHg 57%
17:00 +22°C° 0.1 mm 3 mps 679 mmHg 60%
18:00 +21°C° 0 mm 2 mps 678 mmHg 65%
19:00 +19°C° 0 mm 2 mps 678 mmHg 70%
20:00 +19°C° 0 mm 1 mps 678 mmHg 75%
21:00 +18°C° 0 mm 1 mps 678 mmHg 77%
22:00 +16°C° 0 mm 1 mps 677 mmHg 78%
23:00 +15°C° 0 mm 1 mps 677 mmHg 80%

Tomorrow, 28 July, Wednesday

Time Temperature Precipitation Wind Pressure Humidity
00:00 +15°C° 0 mm 1 mps 677 mmHg 81%
01:00 +15°C° 0 mm 1 mps 677 mmHg 81%
02:00 +15°C° 0 mm 1 mps 677 mmHg 82%
03:00 +15°C° 0 mm 1 mps 677 mmHg 81%
04:00 +16°C° 0 mm 1 mps 677 mmHg 80%
05:00 +18°C° 0 mm 1 mps 677 mmHg 79%
06:00 +20°C° 0 mm 1 mps 677 mmHg 75%
07:00 +21°C° 0 mm 1 mps 677 mmHg 71%
08:00 +22°C° 0 mm 1 mps 677 mmHg 66%
09:00 +23°C° 0.2 mm 2 mps 677 mmHg 63%
10:00 +24°C° 0.2 mm 2 mps 677 mmHg 59%
11:00 +25°C° 0.2 mm 3 mps 677 mmHg 55%
12:00 +25°C° 0.4 mm 3 mps 676 mmHg 57%
13:00 +25°C° 0.4 mm 4 mps 676 mmHg 58%
14:00 +25°C° 0.4 mm 4 mps 676 mmHg 60%
15:00 +23°C° 0.5 mm 5 mps 676 mmHg 62%
16:00 +22°C° 0.5 mm 5 mps 676 mmHg 64%
17:00 +22°C° 0.5 mm 6 mps 676 mmHg 67%
18:00 +20°C° 0 mm 5 mps 675 mmHg 70%
19:00 +18°C° 0 mm 4 mps 675 mmHg 74%
20:00 +15°C° 0 mm 4 mps 675 mmHg 78%
21:00 +14°C° 0 mm 4 mps 675 mmHg 79%
22:00 +14°C° 0 mm 3 mps 675 mmHg 79%
23:00 +13°C° 0 mm 3 mps 675 mmHg 80%

Day after tomorrow, 29 July, Thursday

Time Temperature Precipitation Wind Pressure Humidity
00:00 +12°C° 0 mm 3 mps 674 mmHg 81%
01:00 +12°C° 0 mm 3 mps 674 mmHg 83%
02:00 +11°C° 0 mm 3 mps 674 mmHg 84%
03:00 +11°C° 0 mm 3 mps 674 mmHg 85%
04:00 +12°C° 0 mm 3 mps 675 mmHg 86%
05:00 +12°C° 0 mm 4 mps 675 mmHg 87%
06:00 +13°C° 0 mm 5 mps 675 mmHg 78%
07:00 +15°C° 0 mm 7 mps 676 mmHg 69%
08:00 +16°C° 0 mm 8 mps 676 mmHg 61%
09:00 +17°C° 0 mm 9 mps 676 mmHg 58%
10:00 +18°C° 0 mm 9 mps 676 mmHg 55%
11:00 +18°C° 0 mm 9 mps 676 mmHg 52%
12:00 +18°C° 0 mm 9 mps 676 mmHg 48%
13:00 +18°C° 0 mm 9 mps 677 mmHg 45%
14:00 +18°C° 0 mm 9 mps 677 mmHg 42%
15:00 +18°C° 0 mm 9 mps 677 mmHg 43%
16:00 +17°C° 0 mm 9 mps 677 mmHg 45%
17:00 +16°C° 0 mm 8 mps 677 mmHg 46%
18:00 +15°C° 0 mm 7 mps 677 mmHg 54%
19:00 +13°C° 0 mm 5 mps 677 mmHg 61%
20:00 +11°C° 0 mm 4 mps 677 mmHg 69%
21:00 +10°C° 0 mm 3 mps 676 mmHg 72%
22:00 +9°C° 0 mm 3 mps 676 mmHg 74%
23:00 +9°C° 0 mm 3 mps 676 mmHg 77%

30 July, Friday

Time Temperature Precipitation Wind Pressure Humidity
00:00 +8°C° 0 mm 3 mps 676 mmHg 77%
01:00 +8°C° 0 mm 3 mps 676 mmHg 77%
02:00 +8°C° 0 mm 2 mps 676 mmHg 77%
03:00 +8°C° 0 mm 2 mps 676 mmHg 75%
04:00 +9°C° 0 mm 2 mps 676 mmHg 73%
05:00 +10°C° 0 mm 2 mps 676 mmHg 71%
06:00 +12°C° 0 mm 4 mps 677 mmHg 63%
07:00 +13°C° 0 mm 5 mps 677 mmHg 55%
08:00 +15°C° 0 mm 7 mps 677 mmHg 47%
09:00 +15°C° 0 mm 7 mps 677 mmHg 46%
10:00 +16°C° 0 mm 8 mps 678 mmHg 45%
11:00 +16°C° 0 mm 8 mps 678 mmHg 43%
12:00 +16°C° 0 mm 8 mps 678 mmHg 43%
13:00 +17°C° 0 mm 8 mps 678 mmHg 43%
14:00 +17°C° 0 mm 8 mps 678 mmHg 43%
15:00 +17°C° 0 mm 8 mps 678 mmHg 45%
16:00 +16°C° 0 mm 7 mps 678 mmHg 47%
17:00 +16°C° 0 mm 7 mps 677 mmHg 49%
18:00 +14°C° 0 mm 6 mps 677 mmHg 59%
19:00 +13°C° 0 mm 5 mps 677 mmHg 68%
20:00 +11°C° 0 mm 4 mps 677 mmHg 78%
21:00 +10°C° 0 mm 4 mps 677 mmHg 83%
22:00 +8°C° 0 mm 4 mps 677 mmHg 88%
23:00 +8°C° 0 mm 4 mps 677 mmHg 92%

31 July, Saturday

Time Temperature Precipitation Wind Pressure Humidity
00:00 +7°C° 0 mm 4 mps 677 mmHg 92%
01:00 +7°C° 0 mm 4 mps 677 mmHg 92%
02:00 +6°C° 0 mm 4 mps 677 mmHg 92%
03:00 +6°C° 0 mm 4 mps 677 mmHg 91%
04:00 +6°C° 0 mm 4 mps 678 mmHg 89%
05:00 +6°C° 0 mm 4 mps 678 mmHg 87%
06:00 +8°C° 0 mm 6 mps 679 mmHg 77%
07:00 +9°C° 0 mm 7 mps 679 mmHg 68%
08:00 +10°C° 0 mm 8 mps 679 mmHg 58%
09:00 +11°C° 0 mm 8 mps 680 mmHg 55%
10:00 +12°C° 0 mm 9 mps 680 mmHg 52%
11:00 +13°C° 0 mm 9 mps 680 mmHg 48%
12:00 +13°C° 0 mm 9 mps 680 mmHg 48%
13:00 +13°C° 0 mm 9 mps 681 mmHg 47%
14:00 +13°C° 0 mm 9 mps 681 mmHg 46%
15:00 +13°C° 0 mm 9 mps 681 mmHg 48%
16:00 +12°C° 0 mm 9 mps 681 mmHg 49%
17:00 +12°C° 0 mm 8 mps 682 mmHg 51%
18:00 +10°C° 0 mm 7 mps 682 mmHg 57%
19:00 +9°C° 0 mm 5 mps 682 mmHg 64%
20:00 +8°C° 0 mm 3 mps 682 mmHg 70%
21:00 +7°C° 0 mm 3 mps 682 mmHg 73%
22:00 +7°C° 0 mm 2 mps 682 mmHg 77%
23:00 +6°C° 0 mm 2 mps 682 mmHg 80%

1 August, Sunday

Time Temperature Precipitation Wind Pressure Humidity
00:00 +6°C° 0 mm 2 mps 682 mmHg 80%
01:00 +5°C° 0 mm 2 mps 682 mmHg 79%
02:00 +5°C° 0 mm 2 mps 682 mmHg 78%
03:00 +7°C° 0 mm 1 mps 682 mmHg 76%
04:00 +8°C° 0 mm 1 mps 683 mmHg 74%
05:00 +9°C° 0 mm 1 mps 683 mmHg 72%
06:00 +10°C° 0 mm 2 mps 683 mmHg 66%
07:00 +13°C° 0 mm 2 mps 683 mmHg 59%
08:00 +14°C° 0 mm 3 mps 683 mmHg 52%
09:00 +17°C° 0 mm 3 mps 683 mmHg 50%
10:00 +18°C° 0 mm 4 mps 683 mmHg 48%
11:00 +19°C° 0 mm 4 mps 683 mmHg 46%
12:00 +19°C° 0 mm 4 mps 683 mmHg 45%
13:00 +20°C° 0 mm 4 mps 683 mmHg 44%
14:00 +20°C° 0 mm 4 mps 683 mmHg 44%
15:00 +20°C° 0 mm 4 mps 683 mmHg 46%
16:00 +20°C° 0 mm 4 mps 683 mmHg 47%
17:00 +20°C° 0 mm 4 mps 683 mmHg 49%
18:00 +18°C° 0 mm 3 mps 682 mmHg 58%
19:00 +15°C° 0 mm 2 mps 682 mmHg 67%
20:00 +13°C° 0 mm 1 mps 681 mmHg 76%
21:00 +13°C° 0 mm 1 mps 681 mmHg 76%
22:00 +12°C° 0 mm 1 mps 681 mmHg 77%
23:00 +12°C° 0 mm 1 mps 681 mmHg 78%
Show more

We Need Your Consent

Meteoprog and our Service Providers may store and access personal data such as cookies, device identifiers or other similar technologies on your device and process such data to personalise content and ads, as well as provide social media features and to analyse the traffic.

  • Store and/or access information on your device

    Cookies, device identifiers or other information can be stored or accessed on your device for the purposes indicated above.

  • Personalised ads and content, ad and content measurement, audience insights, and products development

    Ads and content can be personalised based on a profile. More data can be added to better personalise ads and content. Ad and content performance can be measured. Insights about the audience who saw the ads and content can be derived. Such data can be used to develop or improve user’s experience, systems and software.

By clicking ‘I Agree’ you will allow the use of indicated cookies, device identifiers, web beacons or other similar technologies. Your settings can be changed in the browser on your device.

For certain purposes, legitimate interests may be relied on, rather than consent. You can read more about this in our Privacy and Cookie Policy.